Location: Boiro
(42.6475°N, 8.8834°W)
Time: 18:19:21
(UTC+01:00)

Transit 2A - Pass Details

Date: 03 December 2021
Orbit: 591 x 967 km, 66.7° (Epoch: 20 January)

Event Time Altitude Azimuth Distance (km) Brightness Sun altitude
Rises 00:10:13 0° 154° (SSE) 3,246 - -64.2°
Reaches altitude 10° 00:13:48 10° 129° (SE) 2,410 - -64.6°
Maximum altitude 00:16:27 14° 100° (E) 2,223 - -64.9°
Drops below altitude 10° 00:19:12 10° 72° (ENE) 2,535 - -65.3°
Sets 00:23:08 0° 48° (NE) 3,553 - -65.7°
